IRIDIUM 96 [-]

Last updated on Sat May 30 2020 05:14:23 GMT+0000 (Coordinated Universal Time)

1 27376U 02005E 20151.07737158 .11631238 -15117-5 19184-3 0 9991 2 27376 86.3289 152.5252 0018381 255.6503 104.4531 16.46674148980701

Satellite not in orbit